Sherman-Denison, TX

4:35 AM CDT on May 25, 2018 (GMT -0500)
Sherman-Denison

Weather History for KGYI - October, 2013

Change the Weather History Date:

Saturday, October 26, 2013

  Actual Average (KDFW) Record (KDFW)
Temperature  
Mean Temperature 60 °F -  
Max Temperature 70 °F 73 °F 92 °F (1950)
Min Temperature 51 °F 54 °F 33 °F (1898)
Degree Days  
Heating Degree Days 4    
Growing Degree Days 10 (Base 50)    
Moisture  
Dew Point 53 °F    
Average Humidity 82    
Maximum Humidity 95    
Minimum Humidity 67    
Precipitation  
Precipitation 1.05 in - - ()
Sea Level Pressure  
Sea Level Pressure 30.17 in    
Wind  
Wind Speed 7 mph (SE)    
Max Wind Speed 15 mph    
Max Gust Speed 24 mph    
Visibility 9 miles    
Events Rain , Thunderstorm    
Averages and records for this station are not official NWS values.
T = Trace of Precipitation, MM = Missing Value Source: NWS Daily Summary

Daily Weather History Graph

Daily Weather History Graph

Search for Another Location

Airport or City:

Astronomy

Oct. 26, 2013 Rise Set
Actual Time 7:40 AM CDT 6:39 PM CDT
Civil Twilight 7:15 AM CDT 7:05 PM CDT
Nautical Twilight 6:46 AM CDT 7:34 PM CDT
Astronomical Twilight 6:17 AM CDT 8:03 PM CDT
Moon 12:05 AM CDT (10/26) 1:55 PM CDT (10/26)
Length of Visible Light 11h 50m
Length of Day
10h 59m
Waning Gibbous, 53% of the Moon is Illuminated
Oct 26
Waning Gibbous
Oct 26
Last Quarter
Nov 3
New
Nov 9
First Quarter
Nov 17
Full

Hourly Weather History & Observations

Time (CDT) Temp. Dew Point Humidity Pressure Visibility Wind Dir Wind Speed Gust Speed Precip Events Conditions
12:15 AM 53.8 °F 43.0 °F 67% 30.27 in 10.0 mi Calm Calm - N/A   Clear
12:35 AM 51.3 °F 43.2 °F 74% 30.26 in 10.0 mi ESE 4.6 mph - N/A   Clear
12:55 AM 52.3 °F 43.5 °F 72% 30.25 in 10.0 mi SE 5.8 mph - N/A   Clear
1:15 AM 54.0 °F 43.5 °F 68% 30.24 in 10.0 mi SE 10.4 mph - N/A   Clear
1:35 AM 54.1 °F 43.7 °F 68% 30.23 in 10.0 mi SE 10.4 mph - N/A   Clear
1:55 AM 54.5 °F 43.9 °F 67% 30.23 in 10.0 mi SE 9.2 mph 16.1 mph N/A   Clear
2:15 AM 54.1 °F 44.1 °F 69% 30.23 in 10.0 mi SE 9.2 mph - N/A   Clear
2:35 AM 54.0 °F 44.2 °F 70% 30.23 in 10.0 mi SSE 9.2 mph - N/A   Clear
2:55 AM 54.0 °F 44.6 °F 71% 30.23 in 10.0 mi SSE 8.1 mph - N/A   Clear
3:15 AM 54.1 °F 44.8 °F 71% 30.22 in 10.0 mi SSE 6.9 mph - N/A   Clear
3:35 AM 54.1 °F 44.8 °F 71% 30.22 in 10.0 mi SSE 8.1 mph - N/A   Clear
3:55 AM 53.8 °F 45.0 °F 72% 30.22 in 10.0 mi SSE 6.9 mph - N/A   Clear
4:15 AM 53.6 °F 45.1 °F 73% 30.22 in 10.0 mi SSE 6.9 mph - N/A   Clear
4:35 AM 53.6 °F 45.3 °F 74% 30.22 in 10.0 mi SSE 8.1 mph - N/A   Clear
4:55 AM 54.0 °F 45.5 °F 73% 30.22 in 10.0 mi South 6.9 mph - N/A   Mostly Cloudy
5:15 AM 54.3 °F 45.9 °F 73% 30.22 in 10.0 mi SSE 5.8 mph - N/A   Overcast
5:35 AM 54.5 °F 46.0 °F 73% 30.22 in 10.0 mi SSE 6.9 mph - N/A   Overcast
5:55 AM 54.7 °F 46.4 °F 74% 30.22 in 10.0 mi SSE 9.2 mph - N/A   Overcast
6:15 AM 54.9 °F 46.4 °F 73% 30.22 in 10.0 mi SSE 6.9 mph - N/A   Overcast
6:35 AM 54.9 °F 46.6 °F 74% 30.22 in 10.0 mi SSE 6.9 mph - N/A   Overcast
6:55 AM 54.7 °F 46.8 °F 75% 30.22 in 10.0 mi SSE 8.1 mph - N/A   Overcast
7:15 AM 54.7 °F 46.9 °F 75% 30.22 in 10.0 mi SSE 6.9 mph - N/A   Overcast
7:35 AM 54.3 °F 48.0 °F 79% 30.21 in 7.0 mi SSE 5.8 mph - 0.01 in Rain Rain
7:55 AM 54.1 °F 48.6 °F 81% 30.21 in 10.0 mi SSE 5.8 mph - 0.02 in Rain Light Rain
8:15 AM 54.3 °F 49.1 °F 83% 30.21 in 10.0 mi SSE 5.8 mph - N/A Rain , Thunderstorm Light Thunderstorms and Rain
8:35 AM 53.8 °F 49.6 °F 86% 30.23 in 1.8 mi Calm Calm - 0.16 in Rain , Thunderstorm Heavy Thunderstorms and Rain
8:55 AM 53.2 °F 50.7 °F 91% 30.21 in 10.0 mi ESE 8.1 mph - 0.33 in Thunderstorm Thunderstorm
9:15 AM 53.6 °F 50.9 °F 91% 30.21 in 4.0 mi SE 6.9 mph - 0.04 in Rain , Thunderstorm Thunderstorms and Rain
9:35 AM 53.6 °F 51.1 °F 91% 30.22 in 10.0 mi ESE 3.5 mph - 0.07 in Rain , Thunderstorm Light Thunderstorms and Rain
9:55 AM 55.0 °F 52.0 °F 89% 30.22 in 10.0 mi SE 5.8 mph - 0.07 in Thunderstorm Mostly Cloudy
10:15 AM 55.8 °F 52.3 °F 88% 30.22 in 4.0 mi ESE 4.6 mph - 0.02 in Rain , Thunderstorm Thunderstorms and Rain
10:35 AM 56.3 °F 52.9 °F 88% 30.22 in 10.0 mi ESE 5.8 mph - 0.03 in Thunderstorm Overcast
10:55 AM 57.0 °F 53.8 °F 89% 30.22 in 10.0 mi SE 5.8 mph - 0.03 in Rain , Thunderstorm Light Thunderstorms and Rain
11:15 AM 57.9 °F 54.0 °F 87% 30.21 in 10.0 mi ESE 5.8 mph - 0.01 in Thunderstorm Overcast
11:35 AM 60.6 °F 56.7 °F 87% 30.20 in 10.0 mi SSE 10.4 mph - 0.01 in   Overcast
11:55 AM 61.9 °F 56.7 °F 83% 30.20 in 10.0 mi SSE 9.2 mph - 0.01 in   Mostly Cloudy
12:15 PM 62.8 °F 57.2 °F 82% 30.19 in 10.0 mi SE 6.9 mph - N/A Thunderstorm Mostly Cloudy
12:35 PM 64.4 °F 57.9 °F 79% 30.18 in 10.0 mi SE 6.9 mph - N/A Thunderstorm Thunderstorm
12:55 PM 66.2 °F 59.2 °F 78% 30.17 in 10.0 mi South 6.9 mph - N/A Thunderstorm Mostly Cloudy
1:15 PM 66.6 °F 59.0 °F 77% 30.17 in 10.0 mi South 12.7 mph - N/A Thunderstorm Thunderstorm
1:35 PM 67.5 °F 59.4 °F 75% 30.16 in 10.0 mi SSW 13.8 mph 18.4 mph N/A   Mostly Cloudy
1:55 PM 68.4 °F 59.4 °F 73% 30.14 in 10.0 mi South 11.5 mph - N/A   Mostly Cloudy
2:15 PM 68.9 °F 60.3 °F 74% 30.13 in 10.0 mi South 11.5 mph - N/A   Mostly Cloudy
2:35 PM 69.4 °F 60.4 °F 73% 30.12 in 10.0 mi South 13.8 mph - N/A   Mostly Cloudy
2:55 PM 70.7 °F 60.8 °F 71% 30.11 in 10.0 mi South 15.0 mph - N/A   Mostly Cloudy
3:15 PM 70.9 °F 61.0 °F 71% 30.10 in 10.0 mi South 15.0 mph 19.6 mph N/A   Scattered Clouds
3:35 PM 70.3 °F 61.0 °F 72% 30.10 in 10.0 mi South 9.2 mph - N/A Thunderstorm Mostly Cloudy
3:55 PM 66.2 °F 59.9 °F 80% 30.10 in 10.0 mi NE 10.4 mph - N/A Thunderstorm Thunderstorm
4:15 PM 61.7 °F 59.2 °F 91% 30.09 in 5.0 mi NNE 9.2 mph - 0.03 in Rain , Thunderstorm Light Thunderstorms and Rain
4:35 PM 61.2 °F 59.2 °F 93% 30.10 in 5.0 mi North 6.9 mph - 0.03 in Thunderstorm Overcast
4:55 PM 62.1 °F 59.4 °F 91% 30.08 in 10.0 mi East 12.7 mph - 0.03 in Thunderstorm Overcast
5:15 PM 60.6 °F 58.1 °F 91% 30.08 in 10.0 mi ENE 6.9 mph 18.4 mph N/A Thunderstorm Overcast
5:35 PM 60.3 °F 58.1 °F 93% 30.12 in 7.0 mi North 15.0 mph 24.2 mph N/A Thunderstorm Thunderstorm
5:55 PM 59.9 °F 58.1 °F 94% 30.08 in 2.0 mi East 10.4 mph - 0.20 in Rain , Thunderstorm Heavy Thunderstorms and Rain
6:15 PM 60.4 °F 58.3 °F 93% 30.08 in 5.0 mi East 9.2 mph 16.1 mph 0.02 in Rain , Thunderstorm Thunderstorms and Rain
6:35 PM 59.9 °F 57.9 °F 93% 30.07 in 5.0 mi NE 9.2 mph - 0.08 in Rain , Thunderstorm Thunderstorms and Rain
6:55 PM 57.9 °F 56.1 °F 94% 30.09 in 4.0 mi ENE 9.2 mph - 0.16 in Rain , Thunderstorm Heavy Thunderstorms and Rain
7:15 PM 57.2 °F 55.6 °F 94% 30.08 in 5.0 mi East 12.7 mph - 0.05 in Rain , Thunderstorm Thunderstorms and Rain
7:35 PM 56.7 °F 55.0 °F 94% 30.07 in 5.0 mi East 15.0 mph 21.9 mph 0.10 in Rain , Thunderstorm Thunderstorms and Rain
7:55 PM 57.2 °F 55.4 °F 94% 30.10 in 10.0 mi East 10.4 mph 17.3 mph 0.12 in Rain , Thunderstorm Light Thunderstorms and Rain
8:15 PM 57.6 °F 55.9 °F 94% 30.13 in 10.0 mi ESE 3.5 mph - N/A Thunderstorm Overcast
8:35 PM 57.9 °F 56.1 °F 94% 30.12 in 7.0 mi SE 4.6 mph - 0.02 in Rain , Thunderstorm Rain
8:55 PM 57.9 °F 56.1 °F 94% 30.11 in 10.0 mi ESE 5.8 mph - 0.04 in Rain , Thunderstorm Light Thunderstorms and Rain
9:15 PM 58.3 °F 56.5 °F 94% 30.11 in 7.0 mi SE 9.2 mph - 0.01 in Rain Light Rain
9:35 PM 58.3 °F 56.5 °F 94% 30.10 in 7.0 mi SE 10.4 mph - 0.03 in Rain Light Rain
9:55 PM 58.5 °F 56.7 °F 94% 30.09 in 10.0 mi ESE 9.2 mph - 0.04 in Rain Light Rain
10:15 PM 58.5 °F 56.5 °F 93% 30.08 in 10.0 mi East 10.4 mph - N/A   Scattered Clouds
10:35 PM 58.5 °F 56.7 °F 94% 30.09 in 10.0 mi East 6.9 mph - N/A   Scattered Clouds
10:55 PM 58.1 °F 56.3 °F 94% 30.11 in 10.0 mi North 6.9 mph - N/A   Scattered Clouds
11:15 PM 57.7 °F 56.3 °F 95% 30.12 in 10.0 mi NW 3.5 mph - N/A   Scattered Clouds
11:35 PM 58.1 °F 56.5 °F 94% 30.13 in 7.0 mi NNW 4.6 mph - N/A   Overcast
11:55 PM 58.1 °F 56.7 °F 95% 30.13 in 7.0 mi Calm Calm - N/A   Overcast